Russell, KS

10:51 AM CDT on May 24, 2017 (GMT -0500)
Russell Municipal

Weather History for KRSL - March, 2013

Change the Weather History Date:

Monday, March 18, 2013

  Actual Average Record
Temperature  
Mean Temperature 42 °F -  
Max Temperature 57 °F 54 °F 78 °F (1976)
Min Temperature 30 °F 31 °F -4 °F (1958)
Degree Days  
Heating Degree Days 22    
Moisture  
Dew Point 26 °F    
Average Humidity 65    
Maximum Humidity 100    
Minimum Humidity 20    
Precipitation  
Precipitation 0.00 in - - ()
Sea Level Pressure  
Sea Level Pressure 29.91 in    
Wind  
Wind Speed 10 mph (NW)    
Max Wind Speed 23 mph    
Max Gust Speed 39 mph    
Visibility 8 miles    
Events      
Averages and records for this station are not official NWS values.
T = Trace of Precipitation, MM = Missing Value Source: NWS Daily Summary

Daily Weather History Graph

Daily Weather History Graph

Search for Another Location

Airport or City:

Trip Planner

Search our weather history database for the weather conditions in past years. The results will help you decide how hot, cold, wet, or windy it might be!

Date:

Astronomy

Mar. 18, 2013 Rise Set
Actual Time 7:41 AM CDT 7:45 PM CDT
Civil Twilight 7:14 AM CDT 8:12 PM CDT
Nautical Twilight 6:43 AM CDT 8:43 PM CDT
Astronomical Twilight 6:12 AM CDT 9:14 PM CDT
Moon 11:45 AM CDT (3/18) 1:43 AM CDT (3/18)
Length of Visible Light 12h 57m
Length of Day
12h 04m
Waxing Crescent, 41% of the Moon is Illuminated
Mar 18
Waxing Crescent
Mar 19
First Quarter
Mar 27
Full
Apr 2
Last Quarter
Apr 10
New

Hourly Weather History & Observations

Time (CDT) Temp. Windchill Dew Point Humidity Pressure Visibility Wind Dir Wind Speed Gust Speed Precip Events Conditions
12:53 AM 37.0 °F 31.6 °F 34.0 °F 89% 29.77 in 6.0 mi ESE 6.9 mph - 0.00 in   Overcast
1:15 AM 37.4 °F 32.8 °F 33.8 °F 87% 29.74 in 5.0 mi SE 5.8 mph - 0.00 in   Mostly Cloudy
1:53 AM 34.0 °F 28.8 °F 33.1 °F 96% 29.79 in 4.0 mi SSW 5.8 mph - 0.00 in   Mostly Cloudy
2:19 AM 35.6 °F 30.7 °F 33.8 °F 93% 29.77 in 4.0 mi SW 5.8 mph - N/A   Overcast
2:27 AM 35.6 °F 30.7 °F 33.8 °F 93% 29.78 in 4.0 mi WSW 5.8 mph - N/A   Overcast
2:53 AM 37.0 °F 32.4 °F 35.1 °F 93% 29.81 in 4.0 mi West 5.8 mph - N/A   Overcast
3:24 AM 33.8 °F 27.7 °F 33.8 °F 100% 29.79 in 3.0 mi West 6.9 mph - N/A   Mostly Cloudy
3:53 AM 33.1 °F 27.7 °F 32.0 °F 96% 29.83 in 3.0 mi West 5.8 mph - N/A   Partly Cloudy
4:20 AM 35.6 °F 26.6 °F 33.8 °F 93% 29.80 in 5.0 mi WNW 13.8 mph - N/A   Mostly Cloudy
4:53 AM 37.0 °F 26.7 °F 34.0 °F 89% 29.85 in 7.0 mi NNW 19.6 mph - N/A   Overcast
5:17 AM 35.6 °F 25.2 °F 33.8 °F 93% 29.84 in 7.0 mi NNW 18.4 mph 26.5 mph N/A   Mostly Cloudy
5:37 AM 33.8 °F 25.8 °F 32.0 °F 93% 29.84 in 6.0 mi NNW 10.4 mph - N/A   Scattered Clouds
5:53 AM 33.1 °F 26.1 °F 30.9 °F 92% 29.88 in 5.0 mi NW 8.1 mph - N/A   Clear
6:53 AM 33.1 °F 23.4 °F 28.0 °F 82% 29.92 in 10.0 mi NNW 13.8 mph - N/A   Clear
7:53 AM 30.9 °F 23.5 °F 27.0 °F 85% 29.94 in 10.0 mi NW 8.1 mph - N/A   Clear
8:53 AM 35.1 °F 27.4 °F 28.9 °F 78% 29.96 in 10.0 mi NW 10.4 mph - N/A   Clear
9:53 AM 39.9 °F 33.9 °F 30.0 °F 68% 29.97 in 10.0 mi West 9.2 mph - N/A   Clear
10:53 AM 45.0 °F 40.1 °F 27.0 °F 49% 29.98 in 10.0 mi NW 9.2 mph - N/A   Clear
11:53 AM 50.0 °F - 19.0 °F 29% 29.98 in 10.0 mi NNW 21.9 mph 33.4 mph N/A   Clear
12:53 PM 52.0 °F - 17.1 °F 25% 29.98 in 10.0 mi NNW 20.7 mph 39.1 mph N/A   Clear
1:53 PM 53.1 °F - 18.0 °F 25% 29.98 in 10.0 mi NNW 16.1 mph 27.6 mph N/A   Clear
2:53 PM 55.9 °F - 17.1 °F 22% 29.95 in 10.0 mi NNW 13.8 mph 24.2 mph N/A   Clear
3:53 PM 55.0 °F - 14.0 °F 20% 29.95 in 10.0 mi NNW 19.6 mph 34.5 mph N/A   Scattered Clouds
4:53 PM 55.9 °F - 16.0 °F 21% 29.94 in 10.0 mi NNW 23.0 mph 27.6 mph N/A   Partly Cloudy
5:53 PM 55.0 °F - 16.0 °F 22% 29.95 in 10.0 mi NNW 15.0 mph 20.7 mph N/A   Clear
6:53 PM 52.0 °F - 16.0 °F 24% 29.95 in 10.0 mi North 10.4 mph - N/A   Clear
7:53 PM 45.0 °F 39.7 °F 17.1 °F 33% 29.98 in 10.0 mi NNE 10.4 mph - N/A   Clear
8:53 PM 36.0 °F 28.5 °F 19.0 °F 50% 30.01 in 10.0 mi ENE 10.4 mph - N/A   Clear
9:53 PM 32.0 °F 23.6 °F 19.0 °F 59% 30.04 in 10.0 mi ENE 10.4 mph - N/A   Clear
10:53 PM 30.9 °F 22.8 °F 18.0 °F 59% 30.04 in 10.0 mi East 9.2 mph - N/A   Clear
11:53 PM 30.0 °F 21.1 °F 18.0 °F 61% 30.06 in 10.0 mi ENE 10.4 mph - N/A   Clear